Weather History for KVSH - April, 2013

Change the Weather History Date:

Tuesday, April 9, 2013

  Actual Average (KMAI) Record (KMAI)
Temperature  
Mean Temperature 78 °F 65 °F  
Max Temperature 82 °F 78 °F 91 °F (2011)
Min Temperature 73 °F 52 °F 42 °F (2007)
Degree Days  
Heating Degree Days 0    
Month to date heating degree days  
Since 1 July heating degree days  
Cooling Degree Days 12    
Month to date cooling degree days  
Year to date cooling degree days  
Growing Degree Days 28 (Base 50)    
Moisture  
Dew Point 69 °F    
Average Humidity 81    
Maximum Humidity 88    
Minimum Humidity 66    
Precipitation  
Precipitation 0.00 in 0.16 in 1.14 in (2002)
Month to date precipitation 1.49  
Year to date precipitation 17.01  
Sea Level Pressure  
Sea Level Pressure 29.99 in    
Wind  
Wind Speed 8 mph (SSE)    
Max Wind Speed 18 mph    
Max Gust Speed 30 mph    
Visibility 10 miles    
Events      
T = Trace of Precipitation, MM = Missing Value Source: NWS Daily Summary

Daily Weather History Graph

Daily Weather History Graph

Search for Another Location

Airport or City:

Trip Planner

Search our weather history database for the weather conditions in past years. The results will help you decide how hot, cold, wet, or windy it might be!

Date:

Astronomy

Apr. 09, 2013 Rise Set
Actual Time 6:21 AM CDT 7:06 PM CDT
Civil Twilight 5:56 AM CDT 7:31 PM CDT
Nautical Twilight 5:28 AM CDT 8:00 PM CDT
Astronomical Twilight 4:58 AM CDT 8:29 PM CDT
Moon 5:41 AM CDT (4/9) 6:41 PM CDT (4/9)
Length of Visible Light 13h 34m
Length of Day
12h 45m
Waning Crescent, 1% of the Moon is Illuminated
Apr 9
Waning Crescent
Apr 10
New
Apr 18
First Quarter
Apr 25
Full
May 2
Last Quarter

Hourly Weather History & Observations

Time (CDT) Temp. Heat Index Dew Point Humidity Pressure Visibility Wind Dir Wind Speed Gust Speed Precip Events Conditions
12:15 AM - - - N/A% 29.97 in 10.0 mi South 6.9 mph - N/A   Overcast
12:35 AM - - - N/A% 29.97 in 10.0 mi SE 5.8 mph - N/A   Overcast
12:55 AM - - - N/A% 29.96 in 10.0 mi SSE 5.8 mph 19.6 mph N/A   Overcast
1:15 AM - - - N/A% 29.95 in 10.0 mi SSE 5.8 mph - N/A   Overcast
1:35 AM - - - N/A% 29.95 in 10.0 mi ESE 5.8 mph - N/A   Overcast
1:55 AM - - - N/A% 29.94 in 10.0 mi SSE 8.1 mph - N/A   Overcast
2:15 AM - - - N/A% 29.94 in 10.0 mi SSE 4.6 mph - N/A   Overcast
2:35 AM - - - N/A% 29.93 in 10.0 mi SSE 3.5 mph - N/A   Overcast
2:55 AM - - - N/A% 29.93 in 10.0 mi South 8.1 mph - N/A   Overcast
3:15 AM - - - N/A% 29.92 in 10.0 mi SSE 5.8 mph - N/A   Overcast
3:35 AM - - - N/A% 29.92 in 10.0 mi SSE 6.9 mph - N/A   Overcast
3:55 AM - - - N/A% 29.93 in 10.0 mi South 8.1 mph 16.1 mph N/A   Overcast
4:15 AM - - - N/A% 29.93 in 10.0 mi SSE 9.2 mph 17.3 mph N/A   Overcast
4:35 AM - - - N/A% 29.93 in 10.0 mi SSE 9.2 mph 16.1 mph N/A   Overcast
4:55 AM - - - N/A% 29.94 in 10.0 mi SSE 8.1 mph - N/A   Overcast
5:15 AM 73.4 °F - 68.0 °F 83% 29.95 in 10.0 mi South 11.5 mph - N/A   Overcast
5:35 AM 73.4 °F - 68.0 °F 83% 29.95 in 10.0 mi South 12.7 mph 17.3 mph N/A   Overcast
5:55 AM 73.4 °F - 68.0 °F 83% 29.95 in 10.0 mi SSE 8.1 mph - N/A   Overcast
6:15 AM 73.4 °F - 68.0 °F 83% 29.96 in 10.0 mi SSE 9.2 mph - N/A   Overcast
6:35 AM 73.4 °F - 68.0 °F 83% 29.96 in 10.0 mi SSE 8.1 mph - N/A   Overcast
6:55 AM 73.4 °F - 68.0 °F 83% 29.97 in 10.0 mi SSE 9.2 mph 18.4 mph N/A   Overcast
7:15 AM 73.4 °F - 68.0 °F 83% 29.98 in 8.0 mi SSE 11.5 mph 20.7 mph N/A   Overcast
7:35 AM - - - N/A% 29.98 in 8.0 mi South 9.2 mph 17.3 mph N/A   Overcast
7:55 AM - - - N/A% 29.98 in 7.0 mi South 8.1 mph - N/A   Overcast
8:15 AM 73.4 °F - 68.0 °F 83% 30.00 in 7.0 mi SSE 6.9 mph - N/A   Overcast
8:35 AM 73.4 °F - 68.0 °F 83% 30.00 in 8.0 mi SSE 6.9 mph - N/A   Overcast
8:55 AM 73.4 °F - 68.0 °F 83% 30.01 in 8.0 mi South 4.6 mph - N/A   Overcast
9:15 AM - - - N/A% 30.01 in 7.0 mi SSE 5.8 mph - N/A   Overcast
9:35 AM - - - N/A% 30.01 in 8.0 mi SSE 6.9 mph 18.4 mph N/A   Overcast
9:55 AM - - - N/A% 30.01 in 8.0 mi SE 8.1 mph - N/A   Overcast
10:15 AM - - - N/A% 30.01 in 8.0 mi SSE 5.8 mph - N/A   Overcast
10:35 AM 75.2 °F - 69.8 °F 83% 30.02 in 8.0 mi SSE 9.2 mph - N/A   Overcast
10:55 AM 75.2 °F - 69.8 °F 83% 30.03 in 9.0 mi South 9.2 mph - N/A   Overcast
11:15 AM 78.8 °F - 69.8 °F 74% 30.03 in 9.0 mi SSE 8.1 mph 17.3 mph N/A   Overcast
11:35 AM 78.8 °F - 69.8 °F 74% 30.04 in 10.0 mi SSE 9.2 mph 17.3 mph N/A   Overcast
11:55 AM 78.8 °F - 69.8 °F 74% 30.03 in 10.0 mi SSE 13.8 mph 20.7 mph N/A   Overcast
12:15 PM 80.6 °F 83.9 °F 69.8 °F 70% 30.03 in 10.0 mi South 12.7 mph 25.3 mph N/A   Overcast
12:35 PM 80.6 °F 83.9 °F 69.8 °F 70% 30.03 in 10.0 mi South 17.3 mph 25.3 mph N/A   Overcast
12:55 PM 80.6 °F 83.9 °F 69.8 °F 70% 30.02 in 10.0 mi South 18.4 mph 27.6 mph N/A   Overcast
1:15 PM 82.4 °F 86.3 °F 69.8 °F 66% 30.02 in 10.0 mi South 16.1 mph 26.5 mph N/A   Overcast
1:35 PM 82.4 °F 86.3 °F 69.8 °F 66% 30.01 in 10.0 mi South 15.0 mph 29.9 mph N/A   Overcast
1:55 PM - - - N/A% 30.00 in 10.0 mi South 13.8 mph 20.7 mph N/A   Overcast
2:15 PM - - - N/A% 29.99 in 10.0 mi South 12.7 mph 21.9 mph N/A   Overcast
2:35 PM - - - N/A% 29.99 in 10.0 mi SSE 18.4 mph 23.0 mph N/A   Overcast
2:55 PM - - - N/A% 29.99 in 10.0 mi SE 12.7 mph 21.9 mph N/A   Overcast
3:15 PM 78.8 °F - 69.8 °F 74% 29.99 in 10.0 mi SSE 8.1 mph 20.7 mph N/A   Overcast
3:35 PM - - - N/A% 29.98 in 10.0 mi SE 5.8 mph - N/A   Overcast
3:55 PM - - - N/A% 29.98 in 10.0 mi SE 8.1 mph - N/A   Overcast
4:15 PM - - - N/A% 29.98 in 10.0 mi SE 6.9 mph 16.1 mph N/A   Overcast
4:35 PM - - - N/A% 29.98 in 10.0 mi SE 5.8 mph - N/A   Unknown
4:55 PM - - - N/A% 29.98 in 9.0 mi SE 6.9 mph - N/A   Overcast
5:15 PM - - - N/A% 29.98 in 10.0 mi SE 8.1 mph 16.1 mph N/A   Overcast
5:35 PM - - - N/A% 29.99 in 9.0 mi SE 11.5 mph 19.6 mph N/A   Overcast
5:55 PM - - - N/A% 29.99 in 9.0 mi SE 10.4 mph 16.1 mph N/A   Mostly Cloudy
6:15 PM - - - N/A% 30.00 in 9.0 mi ESE 4.6 mph - N/A   Overcast
6:35 PM - - - N/A% 30.00 in 9.0 mi SE 8.1 mph - N/A   Overcast
6:55 PM - - - N/A% 29.99 in 9.0 mi SE 10.4 mph - N/A   Mostly Cloudy
7:15 PM - - - N/A% 29.99 in 9.0 mi SE 8.1 mph - N/A   Mostly Cloudy
7:35 PM - - - N/A% 30.00 in 10.0 mi ESE 8.1 mph 17.3 mph N/A   Overcast
7:55 PM 75.2 °F - 69.8 °F 83% 30.01 in 10.0 mi SE 9.2 mph 16.1 mph N/A   Overcast
8:15 PM 73.4 °F - 69.8 °F 88% 30.01 in 10.0 mi SE 6.9 mph - N/A   Mostly Cloudy
8:35 PM 73.4 °F - 69.8 °F 88% 30.01 in 10.0 mi SE 8.1 mph 17.3 mph N/A   Overcast
8:55 PM - - - N/A% 30.00 in 10.0 mi SE 9.2 mph 16.1 mph N/A   Overcast
9:15 PM - - - N/A% 30.01 in 10.0 mi SE 10.4 mph - N/A   Overcast
9:55 PM 73.4 °F - 69.8 °F 88% 30.01 in 10.0 mi SE 5.8 mph 17.3 mph N/A   Overcast
10:15 PM 73.4 °F - 69.8 °F 88% 30.01 in 10.0 mi SE 8.1 mph - N/A   Overcast
10:35 PM 73.4 °F - 69.8 °F 88% 30.01 in 10.0 mi SE 3.5 mph - N/A   Overcast
10:55 PM 73.4 °F - 69.8 °F 88% 30.01 in 10.0 mi SSE 4.6 mph - N/A   Overcast
11:15 PM 73.4 °F - 69.8 °F 88% 30.00 in 10.0 mi SSE 9.2 mph - N/A   Overcast
11:35 PM 73.4 °F - 69.8 °F 88% 30.00 in 10.0 mi SSE 10.4 mph 17.3 mph N/A   Overcast
11:55 PM 73.4 °F - 69.8 °F 88% 29.99 in 10.0 mi SSE 4.6 mph 18.4 mph N/A   Overcast